Regional Weather Roundup
Issued by NWS

Home | Current Version | Previous Version | Graphics & Text | Print | Product List | Glossary On
Versions: 1 2 3 4 5 6 7 8 9 10 11 12 13 14 15 16 17 18 19 20 21 22 23 24 25 26 27 28 29 30 31 32 33 34 35 36 37 38 39 40 41 42 43 44 45 46 47 48 49 50
262
ASUS45 KCYS 301010
RWRWY

WYOMING REGIONAL WEATHER ROUNDUP
NATIONAL WEATHER SERVICE CHEYENNE WY
400 AM MDT SAT JUL 30 2016

NOTE:  "FAIR" INDICATES FEW OR NO CLOUDS BELOW 12,000 FEET
WITH NO SIGNIFICANT WEATHER AND/OR OBSTRUCTIONS TO VISIBILITY.

WYZ001-301100-
YELLOWSTONE NATIONAL PARK

CITY           SKY/WX    TMP DP  RH WIND       PRES   REMARKS
LK YELLOWSTONE   N/A     44  41  89 NW3       30.22F
W YELLOWSTONE  NOT AVBL

$$
WYZ002>013-054>058-071-098>099-301100-
NORTHERN WYOMING

CITY           SKY/WX    TMP DP  RH WIND       PRES   REMARKS
JACKSON        FAIR      46  37  71 N6        30.12F
CODY           FAIR      59  46  63 CALM      30.02F
GREYBULL       FAIR      64  48  56 SE6       29.96F
WORLAND        FAIR      59  43  55 S3        29.98F
SHERIDAN       FAIR      58  48  69 CALM      29.96F
BUFFALO        FAIR      63  47  55 CALM      30.03F
GILLETTE       FAIR      61  58  90 S12       30.00F
HULETT         FAIR      63  54  72 SW7       30.02F
NEWCASTLE      FAIR      64  54  68 SE7       30.04F

$$
WYZ014>020-022>026-101>103-301100-
CENTRAL WYOMING

CITY           SKY/WX    TMP DP  RH WIND       PRES   REMARKS
BIG PINEY      FAIR      53  30  41 N8        30.20F
PINEDALE       FAIR      43  36  75 W5        30.21F
DUBOIS         FAIR      50  39  66 W7        30.20F
LANDER         FAIR      57  44  62 SE3       30.10F
RIVERTON       FAIR      58  45  62 W5        30.09F
CASPER         FAIR      54  52  93 NW6       30.07F
DOUGLAS        RAIN      62  58  86 S18       30.04F

$$
WYZ021-027>030-104>119-301100-
SOUTHERN WYOMING

CITY           SKY/WX    TMP DP  RH WIND       PRES   REMARKS
EVANSTON       FAIR      61  32  33 SE7       30.18F
KEMMERER         N/A     55  28  35 N10       30.20F
FORT BRIDGER   FAIR      67  26  21 MISG      30.20F
ROCK SPRINGS   FAIR      60  44  55 SE7       30.17R
DIXON          FAIR      49  33  53 CALM      30.16S
RAWLINS        FAIR      56  50  80 VRB3      30.16S
SARATOGA       FAIR      54  43  66 CALM      30.17S
LARAMIE        FAIR      56  54  93 S7        30.17F
CHEYENNE       CLOUDY    60  57  89 S6        30.13F
TORRINGTON     FAIR      59  57  93 NE3       30.03F
PINE BLUFFS    PTSUNNY   59  57  94 CALM      30.10F THUNDER

$$




USA.gov is the U.S. government's official web portal to all federal, state and local government web resources and services.